Regional Weather Roundup
Issued by NWS Upton, NY

Current Version | Previous Version | Graphics & Text | Print | Product List | Glossary Off
Versions: 1 2 3 4 5 6 7 8 9 10 11 12 13 14 15 16 17 18 19 20 21 22 23 24 25 26

000
ASUS41 KOKX 282104
RWROKX

REGIONAL WEATHER ROUNDUP
NATIONAL WEATHER SERVICE NEW YORK NY
500 PM EDT THU APR 28 2016

NOTE: "FAIR" INDICATES FEW OR NO CLOUDS BELOW 12,000 FEET WITH NO
SIGNIFICANT WEATHER AND/OR OBSTRUCTIONS TO VISIBILITY.

NYZ071-072-176-178-NJZ106-104-282200-
NEW YORK CITY METRO AREA


CITY           SKY/WX    TMP DP  RH WIND       PRES   REMARKS
CENTRAL PARK   MOSUNNY   55  30  38 MISG      30.05S
LAGUARDIA APRT CLOUDY    55  31  39 S12       30.02F
KENNEDY INTL   CLOUDY    52  31  44 SE9       30.05F
NEWARK/LIBERTY CLOUDY    53  28  38 SE8       30.03S
BRNX BOT. GARD   N/A     54  32  43 W17       30.04R
TETERBORO      CLOUDY    55  31  39 S8        30.01F
$$

NYZ177-179-078>081-282200-
LONG ISLAND NEW YORK

CITY           SKY/WX    TMP DP  RH WIND       PRES   REMARKS
FARMINGDALE    PTSUNNY   51  31  46 SE10      30.03F
ISLIP          CLOUDY    50  34  54 S9        30.03F
SHIRLEY        CLOUDY    50  36  58 S10       30.05S
RIVERHEAD        N/A     50  36  57 CALM      30.04S
WESTHAMPTON    CLOUDY    46  35  65 S6        30.06S
EAST HAMPTON   FAIR      47  34  60 S7        30.04S
MONTAUK POINT    N/A     49  38  65 S8        30.06S
$$

NYZ052-065-067-282200-
HUDSON VALLEY

CITY           SKY/WX    TMP DP  RH WIND       PRES   REMARKS
WHITE PLAINS   PTSUNNY   54  35  48 S10       30.01S
NEWBURGH       PTSUNNY   55  21  26 SW6       29.99F
MONTGOMERY     CLOUDY    57  31  37 W3        29.99R
POUGHKEEPSIE   CLOUDY    60  20  21 SW6       29.98S
ALBANY         CLOUDY    56  22  26 SE5       29.98F
$$

NJZ001-105-106-008-010-013-015-019>022-104-282200-
NEW JERSEY

CITY           SKY/WX    TMP DP  RH WIND       PRES   REMARKS
NEWARK/LIBERTY CLOUDY    53  28  38 SE8       30.03S
TETERBORO      CLOUDY    55  31  39 S8        30.01F
CALDWELL       PTSUNNY   56  29  35 S6        30.02S
MORRISTOWN     PTSUNNY   55  32  41 S8        30.02S
SOMERVILLE     LGT RAIN  50  40  68 VRB6      30.02R
SUSSEX         CLOUDY    58  27  30 CALM      29.99F
ANDOVER          N/A     57  27  31 VRB5      29.99S
TRENTON        LGT RAIN  48  36  63 E3        30.03S
MILLVILLE      CLOUDY    48  41  76 E10       30.01S
ATLANTIC CITY  CLOUDY    48  40  73 E8        30.00S
WRIGHTSTOWN    CLOUDY    47  40  76 NE8       30.00S
TOMS RIVER     CLOUDY    46  39  76 E5        30.03S
BELMAR         CLOUDY    47  39  74 E5        30.04S
$$

PAZ047>061-062-071-282200-
EASTERN PENNSYLVANIA

CITY           SKY/WX    TMP DP  RH WIND       PRES   REMARKS
PHILADELPHIA   CLOUDY    49  36  61 NE12      30.04S
ALLENTOWN      LGT RAIN  49  41  74 S9        30.02S
SCRANTON       LGT RAIN  49  37  63 S3        29.99F
$$

CTZ002-004>006-009-010-012-RIZ004-006-007-MAZ004-011-015-282200-
SOUTHERN NEW ENGLAND
 IN CT

CITY           SKY/WX    TMP DP  RH WIND       PRES   REMARKS
BRADLEY INTL   CLOUDY    60  18  19 S12       29.97R
HARTFORD       CLOUDY    57  26  30 S14       30.00R
DANBURY        CLOUDY    55  24  30 S7        30.01S
WTRBRY/OXFORD  CLOUDY    54  21  28 S9        30.01S
BRIDGEPORT     CLOUDY    53  38  56 S12       30.03S
MERIDEN        CLOUDY    53  35  50 S12G20    30.02R
NEW HAVEN      CLOUDY    51  38  60 S8        30.04R
CHESTER        FAIR      50  32  50 S9        30.03S
GROTON         CLOUDY    48  42  80 S14       30.05R
WILLIMANTIC    CLOUDY    55  28  35 S14       30.01R

 IN RI

CITY           SKY/WX    TMP DP  RH WIND       PRES   REMARKS
PROVIDENCE     CLOUDY    50  33  52 S13G24    30.04R
BLOCK ISLAND   CLOUDY    47  35  63 S14       30.05S
WESTERLY       CLOUDY    49  34  56 S14       30.06R

 IN MA

CITY           SKY/WX    TMP DP  RH WIND       PRES   REMARKS
BOSTON         CLOUDY    51  27  39 SE15      30.02R
WORCESTER      PTSUNNY   56  18  22 VRB7      29.98R
WESTFIELD      MOSUNNY   60  18  19 S9        29.97R
PROVINCETOWN   CLOUDY    48  28  46 S9        30.05R
NANTUCKET      CLOUDY    48  33  56 SE12      30.07R
$$

ANZ330-335-338-340-345-350-353-355-282200-
COASTAL MARINE OBSERVATIONS


STATION/POSITION TIME  SKY/WX   TEMP    WIND        PRES    VSBY  WAVE
                                AIR SEA DIR/SP/G                  HT/PER
                 (UTC)          (F)     (DEG/KT/KT) (MB)    (MI)  (FT/S)
NY HARB ENTRANCE 1950            49 51  150/ 12/ 14 1016.8          3/ 4
20S FIRE ISLAND  1950            48 49  120/ 10/ 12 1017.2          3/ 4
GREAT SOUTH BAY  2000            49 58  160/ 10/ 14   N/A
23 SSW MONTAUK P 2050            46 47  160/ 12/ 14 1017.0          3/ 7
15 E BARNEGAT LI 2022               51                N/A           3/ 4
HUDSON CANYON    1950            50 49              1016.6          3/ 5
KINGS POINT      2000            52 54              1016.7
EXECUTION ROCKS  NOT AVBL
CENTRAL LI SOUND 2000            49     170/ 14/ 16   N/A           1/ 2
EASTERN LI SOUND 2000            48 47  160/ 12/ 16   N/A
ROBBINS REEF     2000            50     160/ 16/ 18 1016.1
$$


>>>>>>>>>>>>>>>>>>>>>>>>>>>> KEY <<<<<<<<<<<<<<<<<<<<<<<<<<<
>                                                          <
>     SKY/WX - SKY CONDITION/PRESENT WEATHER               <
>     TMP    - TEMPERATURE IN FAHRENHEIT                   <
>     DP     - DEWPOINT IN FAHRENHEIT                      <
>     RH     - RELATIVE HUMIDITY IN PERCENT                <
>     WIND   - DIRECTION AND SPEED IN MPH                  <
>     PRES   - MEAN SEA LEVEL PRESSURE IN INCHES OF HG     <
>     WCI    - WIND CHILL INDEX                            <
>     VSB    - VISIBILITY IN MILES                         <
>     HX     - HEAT INDEX                                  <
>     TC     - TEMPERATURE IN CELSIUS                      <
>     VRB    - VARIABLE WIND DIRECTION                     <
>                                                          <
>>>>>>>>>>>>>>>>>>>>>>>>>>>> KEY <<<<<<<<<<<<<<<<<<<<<<<<<<<






USA.gov is the U.S. government's official web portal to all federal, state and local government web resources and services.